MOLNIYA 2-10 1 07376U 74056A 25135.91590536 -.00000705 00000-0 00000-0 0 9992 2 07376 65.3652 341.2798 6820685 274.7521 16.5585 2.01070690371746 MOLNIYA 1-29 1 07780U 75036A 25133.96436403 .00000039 00000-0 -15107+0 0 9998 2 07780 63.6636 105.3117 6782317 281.5361 14.7312 2.00625802366910 MOLNIYA 2-14 1 08195U 75081A 25136.09757954 .00000875 00000-0 00000-0 0 9997 2 08195 64.0768 77.0836 6781022 286.5525 13.3000 2.02058537364389 MOLNIYA 1-32 1 08601U 76006A 25136.39003269 .00000313 00000-0 00000-0 0 9990 2 08601 63.6565 174.6325 6719654 279.5606 15.8332 2.00085481 73942 MOLNIYA 3-10 1 11057U 78095A 25136.77094817 .00000107 00000-0 29056-2 0 9995 2 11057 63.5948 21.1496 5611093 314.5599 11.4951 4.09911275427355 MOLNIYA 3-13 1 11896U 80063A 25132.61731437 -.00000632 00000-0 -22834-2 0 9991 2 11896 63.6852 346.6752 7322241 278.1807 11.8944 2.00631351328364 MOLNIYA 1-52 1 13012U 81123A 25136.03385634 .00000447 00000-0 -51007-2 0 9992 2 13012 61.4435 130.3474 7271940 269.1047 15.0760 2.00375215317918 MOLNIYA 1-53 1 13070U 82015A 25135.92989741 .00000265 00000-0 -55748-1 0 9996 2 13070 63.0888 88.0873 7027303 283.6935 12.5277 2.00880517316597 MOLNIYA 3-20 1 13875U 83015A 25136.29316787 .00001564 00000-0 30407-1 0 9992 2 13875 62.0016 197.0522 7085558 268.9669 16.6782 2.00664469245054 MOLNIYA 1-63 1 15429U 84124A 25134.34842971 .00001344 00000-0 00000-0 0 9995 2 15429 63.4300 46.6596 7203543 256.5249 342.1824 2.00581840296056 MOLNIYA 3-27 1 16393U 85117A 25134.84080360 -.00000029 00000-0 -57111-2 0 9998 2 16393 62.5417 285.7885 7161614 247.7281 26.1367 2.12404660296747 MOLNIYA 1-71 1 18946U 88017A 25131.89309432 -.00001183 00000-0 99526-3 0 9990 2 18946 62.3269 321.0576 7456752 261.7810 15.9487 2.00610889272316 MOLNIYA 1-75 1 19807U 89014A 25135.08768353 -.00000694 00000-0 00000-0 0 9993 2 19807 63.7600 178.9345 6646302 258.7769 25.3229 2.00264168265305 MOLNIYA 1-80 1 21118U 91012A 25136.26325327 -.00000639 00000-0 00000-0 0 9992 2 21118 64.9199 228.7761 6361361 262.5705 26.1806 2.05247840252812 MOLNIYA 3-40 1 21196U 91022A 25136.32877988 .00000114 00000-0 00000-0 0 9998 2 21196 64.7336 222.9493 6417992 259.9890 27.0448 2.03023827251281 MOLNIYA 1-81 1 21426U 91043A 25135.77763747 .00000169 00000-0 00000+0 0 9991 2 21426 63.4453 220.3686 6754874 261.0275 23.0809 2.00613590248476 MOLNIYA 3-42 1 22178U 92067A 25135.23653828 .00000048 00000-0 00000-0 0 9999 2 22178 64.5973 97.8379 6801011 251.1893 28.1470 2.20434120103481 MOLNIYA 1-87 1 22949U 93079A 25134.84045478 .00000282 00000-0 00000-0 0 9991 2 22949 65.0194 327.3632 6926026 274.1832 15.9323 2.02843337 96489 MOLNIYA 1-91 1 25485U 98054A 25133.97193548 -.00000122 00000-0 00000-0 0 9996 2 25485 64.4767 344.1033 6792468 287.8013 12.7482 2.36440622204132 MOLNIYA 3-50 1 25847U 99036A 25136.20997648 .00000138 00000-0 -42631-1 0 9995 2 25847 63.5146 196.5575 6828805 280.2953 14.8662 2.00639459189459